Location: ?ern� Novina
(50.6762°N, 14.8696°E)
Time: 14:10:20
(UTC+00:00)

Cosmos 1703 Rocket - Pass Details

Date: 03 March 2021
Orbit: 604 x 634 km, 82.5° (Epoch: 11 April)

Event Time Altitude Azimuth Distance (km) Brightness Sun altitude
Rises 18:46:47 0° 345° (NNW) 2,916 7.4 -19.9°
Reaches altitude 10° 18:49:05 10° 340° (NNW) 1,999 6.6 -20.2°
Maximum altitude 18:53:21 50° 266° (W) 793 4.4 -20.9°
Drops below altitude 10° 18:57:33 10° 191° (SSW) 1,965 6.1 -21.5°
Enters shadow 18:59:31 - 187° (S) 2,748 6.8 -21.8°
